Home > Weather > Terre Haute > Past weeks

Flag for USA Weather for the Past 2 Weeks in Terre Haute, Indiana, USA

Now
56 °F

More clouds than sun.


Feels Like: 54 °F
Forecast: 47 / 57 °F
Wind: 9 mph from North

Location: Robinson Municipal Airport

Current Time: May 4, 2016 at 5:42:21 PM

Latest Report: May 4, 2016 at 4:55 PM


Visibility: 10 mi

Pressure: 29.77 "Hg

Humidity: 66%

Dew Point: 45 °F

Location of Terre HauteLocation

Historic Weather in Terre Haute — Graph

°F

Terre Haute Temperature Yesterday

Maximum temperature yesterday: 64 °F (at 5:15 PM)
Minimum temperature yesterday: 46 °F (at 7:15 AM)
Average temperature yesterday: 55 °F

High & Low Weather Summary for the Past Weeks

 TemperatureHumidityPressure
High80 °F (Apr 26, 3:15 PM)100% (Apr 21, 3:15 AM)30.19 "Hg (Apr 21, 3:15 AM)
Low40 °F (Apr 24, 5:55 AM)35% (Apr 19, 6:15 PM)29.70 "Hg (Apr 26, 8:55 PM)
Average60 °F82%29.94 "Hg
* Reported Apr 19 2:15 PM — May 4 2:15 PM, Terre Haute, Weather by CustomWeather, © 2016

Note: Actual official high and low records may vary slightly from our data, if they occured in-between our weather recording intervals... More about our weather records

Advertising

Terre Haute Weather History for the Previous 24 Hours

Scroll right to see more
 ConditionsComfort  
Time TempWeatherWind HumidityBarometerVisibility
2:15 PM
Wed, May 4
58 °FBroken clouds.15 mph64%29.76 "Hg10 mi
1:55 PM58 °FBroken clouds.16 mph65%29.76 "Hg10 mi
1:35 PM60 °FScattered clouds.17 mph63%29.76 "Hg10 mi
1:15 PM58 °FBroken clouds.17 mph63%29.75 "Hg10 mi
12:55 PM59 °FBroken clouds.15 mph66%29.75 "Hg10 mi
12:15 PM59 °FBroken clouds.15 mph74%29.74 "Hg10 mi
11:55 AM58 °FScattered clouds.10 mph77%29.73 "Hg10 mi
11:15 AM56 °FMostly cloudy.12 mph83%29.73 "Hg10 mi
10:55 AM55 °FBroken clouds.9 mph85%29.72 "Hg10 mi
10:15 AM53 °FMostly cloudy.6 mph91%29.72 "Hg10 mi
9:55 AM51 °FOvercast.7 mph93%29.72 "Hg10 mi
9:35 AM52 °FBroken clouds.7 mph93%29.72 "Hg10 mi
9:15 AM52 °FBroken clouds.7 mph94%29.71 "Hg10 mi
8:55 AM50 °FCloudy.6 mph97%29.72 "Hg10 mi
8:35 AM49 °FLight rain. Cloudy.No wind97%29.73 "Hg10 mi
7:15 AM50 °FRain. Overcast.8 mph94%29.76 "Hg7 mi
7:00 AM50 °FRain. Overcast.13 mph90%29.76 "Hg7 mi
6:35 AM53 °FMostly cloudy.13 mph75%29.73 "Hg10 mi
6:15 AM52 °FOvercast.14 mph75%29.72 "Hg10 mi
5:15 AM51 °FPassing clouds.12 mph79%29.75 "Hg10 mi
4:55 AM51 °FPassing clouds.12 mph78%29.76 "Hg10 mi
3:55 AM51 °FPartly cloudy.10 mph78%29.78 "Hg10 mi
3:15 AM51 °FPassing clouds.8 mph76%29.80 "Hg10 mi
2:15 AM51 °FClear.9 mph79%29.83 "Hg10 mi
1:55 AM51 °FClear.9 mph78%29.83 "Hg10 mi
1:35 AM51 °FClear.9 mph81%29.84 "Hg10 mi
1:15 AM53 °FClear.9 mph75%29.85 "Hg10 mi
12:35 AM54 °FOvercast.9 mph76%29.87 "Hg10 mi
12:15 AM54 °FPassing clouds.8 mph74%29.87 "Hg10 mi
11:55 PM
Tue, May 3
54 °FPassing clouds.9 mph75%29.88 "Hg10 mi
11:15 PM56 °FOvercast.12 mph71%29.89 "Hg10 mi
10:55 PM57 °FOvercast.12 mph69%29.89 "Hg10 mi
10:35 PM57 °FOvercast.10 mph70%29.90 "Hg10 mi
10:15 PM57 °FMostly cloudy.10 mph68%29.90 "Hg10 mi
9:55 PM56 °FMostly cloudy.8 mph70%29.90 "Hg10 mi
9:15 PM59 °FMostly cloudy.9 mph58%29.90 "Hg10 mi
8:55 PM58 °FMostly cloudy.7 mph61%29.90 "Hg10 mi
8:35 PM58 °FMore clouds than sun.6 mph61%29.89 "Hg10 mi
8:15 PM59 °FBroken clouds.7 mph57%29.89 "Hg10 mi
7:55 PM59 °FPartly sunny.5 mph61%29.89 "Hg10 mi
6:55 PM63 °FScattered clouds.No wind45%29.90 "Hg10 mi
6:15 PM62 °FSunny.No wind46%29.91 "Hg10 mi
5:55 PM63 °FScattered clouds.No wind49%29.91 "Hg10 mi
5:35 PM62 °FMore clouds than sun.6 mph50%29.92 "Hg10 mi
5:15 PM64 °FOvercast.6 mph47%29.92 "Hg10 mi
Weather by CustomWeather, © 2016

See weather overviewHow to use our weather pages